Location: All Nations United Methodist Church
(33.0215°N, 96.7483°W)
Time: 15:12:02
(UTC+00:00)

GEOS 3 Rocket - Pass Details

Date: 24 January 2021
Orbit: 772 x 847 km, 115.0° (Epoch: 06 March)

Event Time Altitude Azimuth Distance (km) Brightness Sun altitude
Rises 12:29:10 0° 138° (SE) 3,348 7.8 -12.3°
Reaches altitude 10° 12:31:28 10° 136° (SE) 2,427 7.1 -11.8°
Maximum altitude 12:36:42 66° 55° (NE) 913 4.1 -10.8°
Drops below altitude 10° 12:42:02 10° 334° (NNW) 2,469 5.7 -9.7°
Enters shadow 12:44:18 - 332° (NNW) 3,375 6.4 -9.2°
